ORBCOMM FM19

Last updated on Wed Sep 23 2026 00:03:43 GMT+0000 (Coordinated Universal Time)

1 25415U 98046C 26265.04485578 .00000546 00000+0 21834-3 0 9991 2 25415 44.9927 143.1023 0004194 63.5630 74.9088 14.39645826470734
UTC large
Height (km)
Speed (km/s)
/
Latitude / Longitude
Inclination (degrees)
Orbital Period (minutes)
Azimuth
Elevation
Range (km)
Doppler Factor

Next 0 passes for location: London (51.5072 / 0.1276)

No passes found over London.
ORBCOMM FM19